www.pogodaiklimat.ru

Погода и климат >> Архив погоды >> Великобритания >> Силли


ПОГОДА на Силли

  • Прогноз погоды на Силли
  • Монитор погоды на Силли

АРХИВ ПОГОДЫ на Силли

Время (UTC), дата Ветер
(напр.,м/с)
 
Видим.   Явления Облачность Т
(С)
Тd
(С)
f
(%)
Тe
(С)
Тes
(С)
Комфортность P
(гПа)
Po
(гПа)
Тmin
(С)
Tmax
(С)
R
(мм)
R24
(мм)
S
(см)
22 8.06 З 3 30 км н/о +11.8 +9.4 85 +10 +10 1021.9 1018.1
23 8.06 ЮЗ 4 35 км н/о +11.6 +9.3 86 +9 +9 1021.6 1017.9
00 9.06 З 3 30 км н/о +10.9 +9.2 89 +9 +9 1021.6 1017.8
01 9.06 ЮЗ 3 40 км н/о +11.1 +9.3 89 +9 +9 1021.2 1017.5
02 9.06 З 3 30 км н/о +10.9 +9.4 90 +9 +9 1021.1 1017.3
03 9.06 ЮЗ 3 45 км н/о +10.7 +9.4 92 +9 +9 1020.8 1017.0
04 9.06 ЮЗ 3 40 км н/о +10.9 +9.2 89 +9 +9 1020.6 1016.8
05 9.06 ЮЗ 3 45 км н/о +10.5 +8.9 90 +9 +9 1020.7 1016.9
06 9.06 З 2 27 км н/о +11.5 +10.1 91 +10 +10 1020.8 1017.1 +10.4
07 9.06 ЮЗ 2 40 км н/о +13.2 +9.3 77 +13 +13 1021.0 1017.2
08 9.06 Ю 3 16 км н/о +13.5 +9.8 78 +12 +12 1021.1 1017.3
09 9.06 Ю 3 40 км н/о +14.6 +10.3 75 +14 +14 1021.1 1017.4
10 9.06 Ю 3 45 км н/о +15.0 +10.5 74 +14 +14 1020.9 1017.2
11 9.06 Ю 4 40 км н/о +15.3 +10.9 75 +14 +14 1020.8 1017.0
12 9.06 Ю 4 30 км н/о +15.7 +11.2 75 +15 +15 1020.7 1017.0
13 9.06 Ю 5 35 км н/о +15.8 +11.2 74 +15 +15 1020.5 1016.8
14 9.06 ЮЗ 5 40 км н/о +15.9 +10.8 72 +15 +15 1020.3 1016.6
15 9.06 З 4 30 км н/о +16.2 +11.1 72 +16 +16 1020.1 1016.4
16 9.06 ЮЗ 3 40 км н/о +15.3 +9.5 68 +15 +15 1019.9 1016.2
17 9.06 ЮЗ 3 45 км н/о +15.1 +9.9 71 +14 +14 1020.1 1016.3
18 9.06 З 2 50 км н/о +13.4 +9.5 77 +13 +13 1020.0 1016.2 +16.7
19 9.06 З 2 50 км н/о +13.1 +9.4 78 +12 +12 1020.0 1016.2
20 9.06 ЮЗ 2 50 км н/о +12.5 +8.7 78 +12 +12 1020.0 1016.2
21 9.06 З 2 50 км н/о +12.2 +9.1 81 +12 +12 1020.1 1016.3
22 9.06 З 1 50 км н/о +12.1 +8.4 78 +12 +12 1020.1 1016.3
23 9.06 С 2 50 км в посл. час дождь н/о +11.6 +8.7 82 +11 +11 1019.9 1016.1
00 10.06 С 2 40 км н/о +11.6 +9.3 86 +11 +11 1019.6 1015.9 0.0
01 10.06 СВ 2 50 км н/о +10.8 +8.7 87 +10 +10 1019.4 1015.6
02 10.06 С 1 50 км н/о +10.5 +8.6 88 +10 +10 1019.2 1015.4
03 10.06 Ю 1 30 км дождь н/о +9.9 +8.2 89 +9 +9 1018.5 1014.7
04 10.06 Ю 1 50 км в посл. час дождь н/о +9.9 +8.2 89 +10 +10 1018.1 1014.3
05 10.06 Ю 1 50 км н/о +10.1 +8.0 87 +11 +11 1017.8 1014.0
06 10.06 штиль 0 45 км н/о +11.7 +7.5 75 +11 +11 1017.7 1014.0 +9.4 0.8
07 10.06 ЮЗ 1 50 км н/о +12.1 +8.9 81 +13 +13 1017.8 1014.1
08 10.06 СВ 2 30 км н/о +14.0 +9.9 76 +14 +14 1017.7 1013.9
09 10.06 З 4 8000 м ливневой дождь н/о +10.4 +8.2 86 +8 +8 1017.9 1014.1
10 10.06 ЮЗ 2 12 км дождь н/о +10.2 +8.4 89 +9 +9 1018.1 1014.3
11 10.06 ЮЗ 2 29 км слаб. дождь н/о +11.5 +9.2 86 +10 +10 1017.8 1014.1
12 10.06 С 3 50 км в посл. час дождь н/о +12.9 +8.5 75 +12 +12 1017.6 1013.8 6
13 10.06 СЗ 5 35 км н/о +13.7 +8.5 71 +12 +12 1017.6 1013.8
14 10.06 СЗ 5 50 км н/о +14.5 +9.0 70 +13 +13 1017.2 1013.5
15 10.06 С 6 45 км н/о +14.4 +8.0 65 +13 +13 1017.2 1013.5
16 10.06 С 5 35 км н/о +14.4 +8.4 67 +13 +13 1017.5 1013.7
17 10.06 С 5 35 км н/о +14.2 +7.6 64 +13 +13 1017.6 1013.8
18 10.06 С 5 50 км н/о +14.1 +8.5 69 +12 +12 1017.4 1013.7 +15.1 6
19 10.06 С 6 50 км н/о +13.8 +8.2 69 +12 +12 1017.6 1013.9
20 10.06 С 6 45 км н/о +12.8 +8.2 74 +10 +10 1018.1 1014.3
21 10.06 С 6 45 км н/о +12.4 +8.2 76 +10 +10 1018.5 1014.8
22 10.06 С 7 45 км н/о +12.5 +8.3 76 +10 +10 1018.6 1014.8
23 10.06 С 7 45 км н/о +12.4 +9.0 80 +10 +10 1018.5 1014.8
00 11.06 С 7 40 км н/о +12.2 +9.3 82 +9 +9 1018.0 1014.2
01 11.06 С 8
{13}
30 км н/о +12.5 +9.3 81 +9 +9 1017.7 1013.9
02 11.06 С 8 28 км н/о +12.6 +10.1 85 +10 +10 1017.4 1013.6
03 11.06 С 8 20 км н/о +12.9 +9.8 81 +10 +10 1017.1 1013.4
04 11.06 С 9
{13}
22 км н/о +12.8 +10.1 84 +10 +10 1017.0 1013.2
05 11.06 С 9
{13}
35 км н/о +12.7 +9.3 80 +10 +10 1016.9 1013.1
06 11.06 С 9
{15}
23 км н/о +12.8 +10.0 83 +10 +10 1016.7 1012.9 +12.2
07 11.06 С 10
{16}
21 км н/о +13.2 +10.3 83 +10 +10 1016.7 1013.0
08 11.06 С 10
{14}
25 км н/о +13.1 +10.5 84 +10 +10 1016.4 1012.7
09 11.06 С 11-16
{16}
11 км слаб. ливневой дождь н/о +12.4 +10.3 87 +9 +9 1016.5 1012.7
10 11.06 С 11-16
{16}
13 км слаб. дождь н/о +11.6 +9.3 86 +7 +7 1016.5 1012.7
11 11.06 С 11-16
{17}
14 км в посл. час дождь н/о +12.7 +10.2 85 +9 +9 1016.1 1012.4
12 11.06 С 12-18
{19}
8000 м дождь н/о +11.6 +9.3 86 +7 +7 1016.3 1012.6 2
13 11.06 С 12-19
{19}
17 км слаб. дождь н/о +11.4 +8.6 83 +7 +7 1016.1 1012.4
14 11.06 С 12-18
{19}
20 км в посл. час дождь н/о +11.9 +9.2 84 +8 +8 1016.2 1012.5
15 11.06 С 12-18
{20}
8000 м морось с дождем н/о +11.3 +9.5 89 +7 +7 1016.3 1012.5
16 11.06 С 11-17
{18}
9000 м в посл. час дождь н/о +11.2 +9.6 90 +7 +7 1016.2 1012.4
17 11.06 СВ 12-17
{17}
25 км в посл. час дождь н/о +11.1 +9.1 87 +7 +7 1016.0 1012.3
18 11.06 С 12
{18}
35 км н/о +11.6 +8.4 81 +7 +7 1016.0 1012.3 +13.2 3
19 11.06 С 10-15
{16}
30 км н/о +11.7 +9.0 83 +8 +8 1016.2 1012.4
20 11.06 СВ 10
{14}
35 км н/о +11.5 +8.7 83 +8 +8 1016.3 1012.5
21 11.06 С 9
{14}
40 км н/о +11.7 +8.6 81 +8 +8 1016.3 1012.5
22 11.06 С 9
{14}
35 км н/о +11.8 +8.4 80 +8 +8 1016.2 1012.4
23 11.06 С 9
{13}
30 км н/о +11.7 +8.5 81 +8 +8 1015.9 1012.2
00 12.06 С 9
{14}
35 км слаб. ливневой дождь н/о +10.9 +8.0 82 +7 +7 1015.5 1011.7 0.0
01 12.06 С 8 15 км дождь н/о +10.2 +8.5 89 +6 +6 1015.2 1011.4
02 12.06 С 6 40 км в посл. час дождь н/о +10.4 +8.9 90 +7 +7 1014.4 1010.6
03 12.06 С 8 35 км слаб. ливневой дождь н/о +10.6 +8.8 89 +7 +7 1013.7 1009.9
04 12.06 С 9-14
{14}
35 км в посл. час дождь н/о +10.6 +8.5 87 +7 +7 1013.4 1009.6
05 12.06 С 7 45 км н/о +10.5 +7.9 84 +7 +7 1013.1 1009.3
06 12.06 С 7 45 км в посл. час дождь н/о +10.6 +8.7 88 +7 +7 1012.9 1009.1 +10.0 1
07 12.06 С 7 40 км в посл. час дождь н/о +10.8 +8.6 86 +7 +7 1012.6 1008.8
08 12.06 С 7 16 км слаб. ливневой дождь н/о +10.7 +9.4 92 +7 +7 1012.4 1008.7
09 12.06 СВ 7 30 км в посл. час дождь н/о +10.9 +9.7 92 +7 +7 1012.2 1008.4
10 12.06 С 6 50 км н/о +11.5 +9.9 90 +8 +8 1012.0 1008.2
11 12.06 СВ 7 45 км н/о +11.5 +9.7 89 +8 +8 1012.0 1008.3
12 12.06 С 6 40 км н/о +11.6 +9.2 85 +9 +9 1011.9 1008.1 0.8
13 12.06 С 5 28 км слаб. ливневой дождь н/о +11.1 +9.1 87 +8 +8 1011.7 1008.0
14 12.06 СВ 6 30 км в посл. час дождь н/о +11.4 +9.5 88 +8 +8 1011.6 1007.9
15 12.06 С 5 35 км н/о +11.6 +9.6 88 +9 +9 1011.6 1007.9
16 12.06 С 6 50 км н/о +12.5 +9.0 79 +10 +10 1011.4 1007.6
17 12.06 С 5 35 км н/о +13.1 +9.5 79 +11 +11 1010.9 1007.2
18 12.06 С 4 26 км н/о +13.3 +9.4 77 +12 +12 1010.8 1007.1 +13.6 1
19 12.06 С 3 30 км н/о +12.5 +8.8 78 +11 +11 1010.6 1006.9
20 12.06 С 3 45 км н/о +12.4 +9.2 81 +11 +11 1010.7 1006.9
21 12.06 С 4 22 км н/о +11.9 +10.1 89 +10 +10 1010.8 1007.0
22 12.06 С 3 22 км н/о +12.0 +10.1 88 +10 +10 1010.6 1006.8
23 12.06 С 3 18 км н/о +11.7 +10.2 91 +10 +10 1010.3 1006.6
00 13.06 С 4 30 км н/о +11.4 +10.0 91 +9 +9 1009.9 1006.1
01 13.06 С 2 10 км слаб. морось с дождем н/о +11.3 +10.4 94 +10 +10 1009.2 1005.5
02 13.06 СЗ 4 22 км в посл. час дождь н/о +11.4 +10.5 94 +9 +9 1008.7 1004.9
03 13.06 СЗ 4 50 км в посл. час дождь н/о +11.2 +10.2 94 +9 +9 1008.2 1004.4
04 13.06 СЗ 4 7000 м слаб. ливневой дождь н/о +11.1 +10.4 95 +9 +9 1007.9 1004.2
05 13.06 З 4 50 км слаб. дождь н/о +11.1 +10.6 97 +9 +9 1007.7 1003.9
06 13.06 СЗ 5 40 км в посл. час дождь н/о +11.2 +10.7 97 +8 +8 1007.4 1003.7 +11.0 0.8
07 13.06 З 5 45 км слаб. ливневой дождь н/о +11.5 +11.0 97 +9 +9 1007.4 1003.6
08 13.06 З 4 8000 м слаб. морось н/о +11.7 +11.3 97 +10 +10 1007.5 1003.8
09 13.06 СЗ 4 35 км в посл. час морось н/о +12.6 +12.1 97 +11 +11 1007.6 1003.9
10 13.06 З 4 7000 м в посл. час дождь н/о +12.4 +11.8 96 +10 +10 1007.6 1003.9
11 13.06 З 4 50 км н/о +12.8 +11.8 94 +11 +11 1008.0 1004.2
12 13.06 З 4 45 км н/о +13.8 +12.3 91 +12 +12 1008.1 1004.4 0.6
13 13.06 З 4 45 км н/о +13.0 +11.6 91 +11 +11 1008.4 1004.7
14 13.06 З 4 30 км морось с дождем н/о +12.6 +11.8 95 +11 +11 1008.4 1004.7
15 13.06 З 3 45 км в посл. час дождь н/о +12.8 +12.0 95 +11 +11 1008.5 1004.8
16 13.06 ЮЗ 3 45 км н/о +13.4 +12.4 94 +12 +12 1008.4 1004.7
17 13.06 З 3 50 км н/о +13.6 +11.3 86 +12 +12 1008.3 1004.6
18 13.06 ЮЗ 4 35 км н/о +13.1 +11.5 90 +11 +11 1008.3 1004.6 +15.0 0.8
19 13.06 З 4 50 км н/о +12.7 +11.2 91 +11 +11 1008.5 1004.8
20 13.06 ЮЗ 4 35 км н/о +12.5 +11.3 92 +10 +10 1008.5 1004.8
21 13.06 З 6 2700 м дым н/о +12.0 +11.1 94 +9 +9 1008.7 1005.0
22 13.06 З 4 40 км в посл. час дождь н/о +11.8 +11.2 96 +9 +9 1008.8 1005.0
23 13.06 ЮЗ 4 50 км н/о +12.0 +11.4 96 +10 +10 1008.5 1004.7
00 14.06 ЮЗ 5 15 км в посл. час дождь н/о +11.9 +11.4 97 +9 +9 1008.0 1004.3 0.4
01 14.06 ЮЗ 5 45 км н/о +11.9 +11.5 97 +9 +9 1007.6 1003.9
02 14.06 ЮЗ 9
{13}
3000 м слаб. морось н/о +11.5 +11.0 97 +8 +8 1007.6 1003.9
03 14.06 З 6 40 км в посл. час дождь н/о +11.7 +11.2 97 +9 +9 1007.3 1003.6
04 14.06 З 5 45 км н/о +11.7 +11.2 97 +9 +9 1007.2 1003.5
05 14.06 З 5 18 км н/о +12.0 +11.5 97 +10 +10 1007.5 1003.8
06 14.06 ЮЗ 6 29 км в посл. час дождь н/о +11.8 +10.2 90 +9 +9 1007.5 1003.8 +11.3 1
07 14.06 З 5 24 км н/о +11.9 +10.7 92 +9 +9 1007.8 1004.1
08 14.06 СЗ 6 4800 м дымка н/о +11.1 +10.3 95 +8 +8 1008.6 1004.8
09 14.06 З 3 40 км в посл. час дождь н/о +12.0 +11.4 96 +10 +10 1009.1 1005.4
10 14.06 ЮЗ 5 24 км н/о +13.9 +11.7 87 +12 +12 1009.2 1005.5
11 14.06 ЮЗ 7 21 км н/о +14.1 +11.1 82 +12 +12 1009.2 1005.5
12 14.06 Ю 7 25 км н/о +15.2 +11.4 78 +13 +13 1009.1 1005.4 0.2
13 14.06 Ю 7 17 км н/о +14.7 +10.4 75 +13 +13 1009.0 1005.3
14 14.06 ЮЗ 9 17 км н/о +14.4 +10.8 79 +12 +12 1009.1 1005.4
15 14.06 Ю 7 22 км н/о +13.9 +10.3 79 +12 +12 1009.2 1005.5
16 14.06 ЮЗ 8 14 км н/о +14.2 +10.5 78 +12 +12 1009.0 1005.3
17 14.06 Ю 9 19 км н/о +13.5 +10.5 82 +11 +11 1008.9 1005.2
18 14.06 Ю 8 25 км н/о +13.4 +9.8 79 +11 +11 1008.8 1005.1 +15.9 0.2
19 14.06 Ю 8 20 км н/о +13.2 +10.2 82 +10 +10 1008.4 1004.7
20 14.06 Ю 11
{13}
13 км слаб. ливневой дождь н/о +12.9 +10.4 85 +9 +9 1008.1 1004.4
21 14.06 Ю 10
{15}
9000 м слаб. дождь н/о +12.7 +10.9 89 +9 +9 1008.1 1004.4
22 14.06 Ю 12
{16}
12 км слаб. дождь н/о +12.3 +10.9 91 +8 +8 1007.7 1004.0
23 14.06 Ю 14
{17}
13 км в посл. час дождь н/о +12.7 +11.1 90 +9 +9 1007.2 1003.5
00 15.06 Ю 12
{17}
11 км в посл. час дождь н/о +12.4 +11.8 96 +8 +8 1006.9 1003.2 1
01 15.06 З 6
{16}
35 км в посл. час дождь н/о +11.8 +11.1 95 +9 +9 1007.5 1003.7
02 15.06 З 5 50 км н/о +11.1 +9.3 89 +8 +8 1008.0 1004.3
03 15.06 З 5 45 км н/о +11.0 +8.3 83 +8 +8 1008.3 1004.6
04 15.06 З 5 30 км н/о +10.4 +7.5 82 +8 +8 1008.7 1005.0
05 15.06 З 4 45 км н/о +10.4 +7.8 84 +8 +8 1009.0 1005.3
06 15.06 З 6 45 км н/о +11.7 +8.4 80 +9 +9 1009.5 1005.7 +10.2 2
07 15.06 ЮЗ 5 35 км н/о +13.0 +9.1 77 +11 +11 1009.9 1006.2
08 15.06 ЮЗ 6 30 км н/о +12.9 +8.7 76 +10 +10 1010.3 1006.6
09 15.06 ЮЗ 6 45 км н/о +14.3 +9.9 75 +12 +12 1010.7 1007.0
10 15.06 ЮЗ 6 45 км н/о +13.5 +9.1 75 +11 +11 1011.2 1007.5
11 15.06 ЮЗ 7 45 км н/о +14.8 +9.7 71 +13 +13 1011.5 1007.8
12 15.06 ЮЗ 7 21 км н/о +15.2 +10.6 74 +13 +13 1012.0 1008.3
13 15.06 ЮЗ 7 21 км н/о +16.0 +11.2 73 +15 +15 1012.0 1008.3
14 15.06 ЮЗ 8 25 км н/о +13.8 +10.2 79 +11 +11 1012.2 1008.5
15 15.06 ЮЗ 6 26 км в посл. час дождь н/о +15.4 +11.0 75 +14 +14 1012.4 1008.7
16 15.06 ЮЗ 6 23 км н/о +15.4 +11.2 76 +14 +14 1012.5 1008.8
17 15.06 Ю 5 27 км н/о +15.0 +11.4 79 +14 +14 1012.4 1008.6
18 15.06 Ю 5 30 км н/о +15.1 +11.6 80 +14 +14 1012.5 1008.8 +16.0 0.2
19 15.06 ЮЗ 5 45 км н/о +14.3 +11.0 81 +13 +13 1012.4 1008.7
20 15.06 Ю 5 35 км н/о +13.6 +11.5 87 +12 +12 1012.5 1008.8
21 15.06 ЮЗ 5 29 км н/о +12.8 +11.6 92 +10 +10 1012.9 1009.1
22 15.06 Ю 4 35 км н/о +12.7 +11.6 93 +11 +11 1013.0 1009.3

 

Местоположение метеостанции Силли (Великобритания): широта 49.92 долгота -6.30 высота над уровнем моря 30 м.

В архиве по умолчанию представлена погода на Силли за последнюю неделю. Архивные данные за месяц целиком и за предыдущие месяцы, начиная с января 2011 года, Вы можете получить, выбрав интересующий диапазон дат из раскрывающегося списка и нажав кнопку "Ввод!".


*Определитесь, кто Вы:
робот инопланетянин человек

Внимание! Время в таблицах - всемирное. Для получения местного времени необходимо прибавить поправку, которая равна 0 ч.

Смотрите также архив погоды в соседних городах и на ближайших метеорологических станциях:

Погода на Базе Culdrose (Великобритания) (77 км)
Погода в Камборне (Великобритания) (78 км)
Погода в Кардинхеме (Великобритания) (133 км)
Погода в Плимуте (Великобритания) (163 км)
Погода в Уэссане (Франция) (184 км)
Погода в Плудальмезо (Франция) (193 км)
Погода в Бриньоган-Пляже (Франция) (199 км)
Погода на Базе Chivenor (Великобритания) (199 км)
Погода в Иль-де-Ба (Франция) (210 км)
Погода в Бресте (Франция) (213 км)

Пояснения к столбцам:

Ветер - указаны скорость ветра в м/с - средняя за 10 мин, порывы в срок и между сроками (в фигурных скобках) и направление, откуда дует ветер: С - северный, СВ - северо-восточный, В - восточный, ЮВ - юго-восточный, Ю - южный, ЮЗ - юго-западный, З - западный, СЗ - северо-западный.
Видимость - горизонтальная дальность видимости в метрах или километрах. При видимости от 1 до 10 км при отсутствии осадков обычно наблюдается дымка, при ухудшении видимости до 1 км и менее - туман. В сухую погоду видимость может ухудшаться дымом, пылью или мглою.
Явления - указаны атмосферные явления, наблюдавшиеся в срок или в последний час перед сроком; фигурными скобками обозначены явления, наблюдавшиеся между сроками (за 1-3 часа до срока); квадратными скобками обозначены град или гололедные отложения с указанием их диаметра в мм.
Облачность - указаны через наклонную черту общая и нижняя облачность в баллах и высота нижней границы облаков в метрах; квадратными скобками обозначены формы облаков: Ci - перистые, Cs - перисто-слоистые, Cc - перисто-кучевые, Ac - высококучевые, As - высокослоистые, Sc - слоисто-кучевые, Ns - слоисто-дождевые, Cu - кучевые, Cb - кучево-дождевые. Подробнее классификацию облаков см. в Атласе облаков (PDF).
T - Температура воздуха - температура, измеренная на высоте 2 м над землей.
Td - Температура точки росы - температура, при понижении до которой содержащийся в воздухе водяной пар достигнет насыщения.
f - Относительная влажность воздуха - влажноcть воздуха, измеренная на высоте 2 м над землей.
Te - Эффективная температура - температура, которую ощущает одетый по сезону человек в тени. Характеристика душности погоды. При расчете учитывается влияние влажности воздуха и скорости ветра на теплоощущения человека.
Tes - Эффективная температура на солнце - температура, которую ощущает человек, с поправкой на солнечный нагрев. Характеристика знойности погоды. Зависит от высоты солнца над горизонтом, облачности и скорости ветра. Ночью, в пасмурную погоду, а также при ветре 12 м/с и более поправка равна нулю.
P - Атмосферное давление - приведенное к уровню моря атмосферное давление.
Po - Атмосферное давление - измеренное на уровне метеостанции атмосферное давление.
Tmin - Минимальная температура - минимум температуры воздуха на высоте 2 м над землей.
Tmax - Максимальная температура - максимум температуры воздуха на высоте 2 м над землей.
R - Количество осадков - Количество выпавших осадков за период времени, мм. При наведении курсора мыши на число - период времени, за который выпало указанное количество осадков.
R24 - Количество осадков - Количество выпавших осадков за 24 часа, мм.
S - Снежный покров - Высота снежного покрова, см. При наведении курсора мыши на число - состояние снежного покрова и степень покрытия местности в баллах.